KM5RF Weather Reports


Display with metric or nautical units.
time (UTC)temp
F
wind
direction
speed
MPH
gust
MPH
rain 1hr
in
rain 24hr
in
rain mn
in
humidity
%
barometer
mb
20260504231535 77 182 12.0 28.0 0.00 0.00 0.00 67 1007.2
20260504230017 77 170 11.0 22.0 0.00 0.00 0.00 67 1007.4
20260504224522 78 193 13.0 25.0 0.00 0.00 0.00 65 1007.8
20260504223022 78 152 14.0 23.0 0.00 0.00 0.00 66 1007.7
20260504221524 78 195 13.0 24.0 0.00 0.00 0.00 66 1007.6
20260504220034 78 179 12.0 24.0 0.00 0.00 0.00 66 1007.9
20260504214516 79 182 12.0 24.0 0.00 0.00 0.00 65 1008.0
20260504213020 79 147 12.0 24.0 0.00 0.00 0.00 64 1008.4
20260504211528 79 171 12.0 25.0 0.00 0.00 0.00 65 1008.5
20260504210039 80 178 12.0 21.0 0.00 0.00 0.00 65 1008.8
20260504204528 79 174 12.0 30.0 0.00 0.00 0.00 63 1009.0
20260504203025 79 171 13.0 25.0 0.00 0.00 0.00 64 1009.5
20260504201522 79 187 12.0 26.0 0.00 0.00 0.00 64 1009.8
20260504200026 78 159 13.0 26.0 0.00 0.00 0.00 64 1010.2
20260504194539 78 194 12.0 23.0 0.00 0.00 0.00 65 1010.4
20260504193030 78 224 11.0 26.0 0.00 0.00 0.00 64 1010.5
20260504191532 78 171 11.0 23.0 0.00 0.00 0.00 63 1010.6
20260504190029 77 173 10.0 23.0 0.00 0.00 0.00 65 1011.1
20260504184510 77 155 12.0 24.0 0.00 0.00 0.00 64 1011.1
20260504183012 77 179 10.0 24.0 0.00 0.00 0.00 65 1011.4
20260504181518 76 161 8.0 24.0 0.00 0.00 0.00 65 1011.7
20260504180024 76 173 10.0 23.0 0.00 0.00 0.00 65 1011.9
20260504174526 75 148 9.0 20.0 0.00 0.00 0.00 65 1012.0
20260504173015 75 173 12.0 24.0 0.00 0.00 0.00 64 1012.1
20260504171514 74 186 12.0 21.0 0.00 0.00 0.00 64 1012.4
20260504081511 59 157 6.0 12.0 0.00 0.00 0.00 76 1014.4
20260504044511 64 198 4.0 11.0 0.00 0.00 0.00 68 1016.4
20260504043016 64 181 5.0 12.0 0.00 0.00 0.00 68 1016.4
20260504041521 65 183 7.0 10.0 0.00 0.00 0.00 67 1016.5
20260504040029 65 175 4.0 9.0 0.00 0.00 0.00 67 1016.5
20260504034539 65 179 5.0 10.0 0.00 0.00 0.00 67 1016.5
20260504033015 65 189 4.0 8.0 0.00 0.00 0.00 67 1016.5
20260504031520 65 178 3.0 6.0 0.00 0.00 0.00 66 1016.5
20260504030017 65 188 3.0 6.0 0.00 0.00 0.00 65 1016.3
20260504030005 65 165 3.0 6.0 0.00 0.00 0.00 65 1016.3
20260504024505 66 182 3.0 8.0 0.00 0.00 0.00 63 1016.3
20260504023004 67 175 4.0 8.0 0.00 0.00 0.00 62 1016.3
20260504021505 67 182 4.0 8.0 0.00 0.00 0.00 61 1016.3
20260504020004 68 173 4.0 8.0 0.00 0.00 0.00 60 1016.2
20260504014515 68 169 3.0 10.0 0.00 0.00 0.00 60 1016.0
20260504013009 69 175 5.0 9.0 0.00 0.00 0.00 59 1015.9
20260504011504 70 136 4.0 8.0 0.00 0.00 0.00 57 1015.9
20260504010006 71 161 4.0 12.0 0.00 0.00 0.00 55 1016.0
20260504004504 72 190 6.0 15.0 0.00 0.00 0.00 53 1016.0
20260504003004 74 171 6.0 15.0 0.00 0.00 0.00 51 1016.1
20260504001508 75 182 7.0 14.0 0.00 0.00 0.00 49 1016.1
20260504000007 76 198 8.0 16.0 0.00 0.00 0.00 49 1016.1
20260503234524 76 172 7.0 18.0 0.00 0.00 0.00 49 1016.3
20260503233024 77 175 10.0 16.0 0.00 0.00 0.00 46 1016.3